FENGYUN 1D

Satellite information

Favourite Embed

Satellite Type and Status

PAYLOADIN ORBIT

Key statistics

Satellite FENGYUN 1D at a glance.

Uptime

8393

Days in orbit

Revolutions

≈ 14.1

Per day

Orbit

SSO

Sun Synchronous Orbit

Inclination

99.0

Latest

Satellite identification and parameters

Extended collection of information and parameters for FENGYUN 1D.

Object identification

Identified? True

Debris? False

Object name: FENGYUN 1D

International designator: 2002-024B

Object number (NORAD): 27431

Object ID (CCSDS): 27431

Country: PEOPLES REPUBLIC OF CHINA (PRC)

Current information (Y/N): Y

RCS size: LARGE

Orbital parameters

Period: 102.118 minutes

Inclination: 99.0079 deg

SMA: 7237.033 km

Apoapsis: 869.401 km

Periapsis: 848.394 km

RAAN: 171.7731 deg

Eccentricy: 0.0014513

Argument of periapsis: 310.4814 deg

Mean anomaly: 49.509 deg

Mean motion: 14.1013916 rev/day

Mean motion (dot): 0.00000023 rev/day2

B* drag term: 0.000038441 1/REarth

Two-line elements (TLE)

Creation date: May 6, 2025, 3:54 a.m.

Reference frame: TEME

Reference center: EARTH

Epoch: May 5, 2025, 9:12 p.m. UTC

TLE line 0: 0 FENGYUN 1D

TLE line 1: 1 27431U 02024B 25125.88348188 .00000023 00000-0 38441-4 0 9997

TLE line 2: 2 27431 99.0079 171.7731 0014513 310.4814 49.5090 14.10139160182076

Live tracking on map

Real-time ground track for satellite FENGYUN 1D.

In-orbit conjunctions

There are no conjunctions computed for FENGYUN 1D, at the moment. Check back to stay up to date, as we update our databases every day.

Go to all conjunctions

Associated space launch

HaiYang abbreviated HY, is a series of marine remote sensing satellites developed and operated by China since 2002. As of June 2020, six satellites were launched and two more are planned. Feng Yun 1D was a polar orbiting meteorological satellite.

FENGYUN 1D was lifted into orbit during the mission ‘Long March 4B | Hai Yang 1 & Feng Yun 1D’, on board a Long March 4B space rocket.

The launch took place on May 15, 2002, 1:50 a.m. from Launch Complex 7.

For more information about the launch, click the button.

Launch to space Long March 4B | Hai Yang 1 & Feng Yun 1D
Long March 4B | Hai Yang 1 & Feng Yun 1D

Agency: N/A

Status: Launch Successful

Launch date: May 15, 2002, 1:50 a.m. UTC

Rocket: Long March 4B

Launch pad: Launch Complex 7

Location: Taiyuan Satellite Launch Center, People's Republic of China

...

Latest news about this satellite

There are no fresh news available about this satellite. Check back as we update our databases every day.


Newsletter sign-up

Weekly statistics, charts and insights to help you stay on top of the space industry.